DECAYED

STARLINK-32477, 62038 (Decayed)

Orbit data source: Space-Track

STARLINK-32477, 62038 was a payload satellite owned by SpaceX/Seattle (US) in LEO that was launched on Thu, 21 Nov 2024 UTC via an FALCON 9 launch vehicle from the Air Force Eastern Test Range (AFETR). Payload-class satellites include a variety of spacecraft equipped with specific instruments for various scientific and technological missions. These include communications satellites like Starlink; space stations such as the ISS; scientific satellites like the Hubble; Earth observation satellites from companies like Planet Labs, Umbra, and HawkEye 360; GPS; miniature CubeSats for education and research; and military/defense satellites.

Not visible in the next 10 days
Identifier
62038, 2024-216G
Orbit
Decayed
Country
Flag of USUS
Related business
Manufacturer
SpaceX/Seattle
Mission
Decayed Commercial Communications
Bus & Motor
STARLINK V2M, Unknown motor
Mass
730 kg wet, ~700 kg dry
Launch date (UTC)
2024-11-21 (2 years ago)
Launch vehicle
FALCON 9
Launch site
Air Force Eastern Test Range (AFETR)
Object type
Payload
Rocket body
Debris
Shape & HBR
Box + 2 Pan, 17.7 m
Radar Cross Section
33.884 m², Large (>1 m²)

Expand to show TLE details & history
Last TLE update: 3 weeks ago

TLE from 3 weeks ago
0 STARLINK-32477
1 62038U 24216G   26210.18223113  .19175325  86043-5  55650-2 0  9998
2 62038  42.9859 122.7646 0032382 214.2211 145.6589 16.24787158 94995
Epoch: 2026-07-29T04:22Z
TLE epoch observation values (Epoch: 2026-07-29T04:22:24.769Z)
Latitude
-0.00004°
Longitude
110.32058°
Altitude
223.976 km
Speed
7.764 km/s
True Right ascension
08h 11m 03s
True Declination
0° 00' 00"
Sunlit
Object was in daylight at epoch
Visualization orbit readout
Latitude
Unknown
Longitude
Unknown
Altitude
Unknown
Speed
Unknown
Apparent Right ascension
Unknown
Apparent Declination
Unknown
Sunlit
N/A
Visualization observer readout
Local Sidereal Time
19:23:55
Azimuth
Unknown
Elevation
Unknown
Doppler factor
Unknown
Orbital elements
Apogee altitude
229.944 km
Perigee altitude
187.286 km
Semi-major axis
6,586.752 km
Eccentricity
0.00324
Inclination
42.9859°
RAAN
122.7646°
Arg. of periapsis
214.2211°
True anomaly
145.86753°
Mean anomaly
145.6589°
Eccentric anomaly
145.76328°
Mean motion
4.06009 °/min
Orbital period
88.67 mins
BSTAR
0.005565
Loading maneuver chart data...
Computing Atmospheric mass density...
Loading historical data...
Loading historical data...
Loading historical data...
Loading historical data...
Loading historical data...
Loading historical data...
Loading historical data...

Documentation

Showing up to 5 results
|